COSMOS 2416             
1 28908U 05048A   19258.74086262  .00000008  00000-0 -12409-4 0  9993
2 28908  82.4643  84.7197 0006702 277.4358 145.5921 12.55495583629396
GONETS-D1M 1            
1 28909U 05048B   19258.47322495  .00000058  00000-0  29490-3 0  9996
2 28909  82.4638  86.6419 0006606 270.2335  89.7994 12.55183646629201
SL-8 R/B                
1 28910U 05048C   19258.86525337  .00000020  00000-0  58314-4 0  9998
2 28910  82.4630  88.2793 0016639 193.9217 295.4333 12.54919410629056